Nashua, NH

7:13 AM EDT on October 14, 2019 (GMT -0400)
Boire

Weather History for KASH - May, 2019

Change the Weather History Date:

Friday, May 10, 2019

  Actual Average Record
Temperature  
Mean Temperature 54 °F -  
Max Temperature 59 °F 65 °F 91 °F (1979)
Min Temperature 48 °F 42 °F 30 °F (1955)
Degree Days  
Heating Degree Days 12    
Growing Degree Days 4 (Base 50)    
Moisture  
Dew Point 49 °F    
Average Humidity 84    
Maximum Humidity 100    
Minimum Humidity 48    
Precipitation  
Precipitation 0.06 in - - ()
Sea Level Pressure  
Sea Level Pressure 30.05 in    
Wind  
Wind Speed 5 mph (SSE)    
Max Wind Speed 8 mph    
Max Gust Speed -    
Visibility 7 miles    
Events Rain    
Averages and records for this station are not official NWS values.
T = Trace of Precipitation, MM = Missing Value Source: NWS Daily Summary

Daily Weather History Graph

Daily Weather History Graph

Search for Another Location

Airport or City:

Astronomy

May. 10, 2019 Rise Set
Actual Time 5:29 AM EDT 7:56 PM EDT
Civil Twilight 4:57 AM EDT 8:28 PM EDT
Nautical Twilight 4:17 AM EDT 9:08 PM EDT
Astronomical Twilight 3:33 AM EDT 9:52 PM EDT
Moon 10:24 AM EDT (5/10) 12:48 AM EDT (5/10)
Length of Visible Light 15h 30m
Length of Day
14h 27m
Waxing Crescent, 35% of the Moon is Illuminated
May 10
Waxing Crescent
May 11
First Quarter
May 18
Full
May 26
Last Quarter
Jun 3
New

Hourly Weather History & Observations

Time (EDT) Temp. Dew Point Humidity Pressure Visibility Wind Dir Wind Speed Gust Speed Precip Events Conditions
12:56 AM 52.0 °F 37.0 °F 57% 30.31 in 10.0 mi Variable 4.6 mph - N/A   Overcast
1:56 AM 51.1 °F 35.1 °F 54% 30.30 in 10.0 mi SE 4.6 mph - N/A   Overcast
2:56 AM 51.1 °F 33.1 °F 50% 30.28 in 10.0 mi SE 6.9 mph - 0.00 in   Overcast
3:56 AM 50.0 °F 30.9 °F 48% 30.27 in 10.0 mi SSE 6.9 mph - N/A   Overcast
4:56 AM 50.0 °F 33.1 °F 52% 30.26 in 10.0 mi SSE 4.6 mph - 0.00 in   Overcast
5:56 AM 48.9 °F 32.0 °F 52% 30.25 in 10.0 mi Variable 5.8 mph - N/A   Overcast
6:56 AM 48.9 °F 33.1 °F 54% 30.25 in 10.0 mi Variable 4.6 mph - 0.00 in   Overcast
7:56 AM 50.0 °F 33.1 °F 52% 30.23 in 10.0 mi Variable 5.8 mph - N/A   Overcast
8:24 AM 50.0 °F 35.6 °F 58% 30.17 in 10.0 mi Variable 5.8 mph - N/A   Overcast
8:56 AM 51.1 °F 36.0 °F 56% 30.18 in 10.0 mi SE 8.1 mph - N/A   Overcast
9:56 AM 53.1 °F 39.9 °F 61% 30.16 in 10.0 mi SSE 8.1 mph - N/A   Overcast
10:56 AM 54.0 °F 45.0 °F 72% 30.13 in 10.0 mi Variable 6.9 mph - N/A   Overcast
11:56 AM 55.9 °F 48.9 °F 77% 30.10 in 10.0 mi SSE 8.1 mph - N/A   Overcast
12:56 PM 54.0 °F 52.0 °F 93% 30.08 in 7.0 mi Variable 5.8 mph - 0.00 in Rain Light Rain
1:56 PM 54.0 °F 54.0 °F 100% 30.04 in 6.0 mi South 6.9 mph - 0.02 in Rain Light Rain
2:56 PM 55.0 °F 55.0 °F 100% 30.01 in 6.0 mi Variable 6.9 mph - 0.00 in   Overcast
3:18 PM 55.4 °F 55.4 °F 100% 29.96 in 3.0 mi Variable 6.9 mph - 0.01 in Rain Light Rain
3:56 PM 55.0 °F 55.0 °F 100% 29.99 in 5.0 mi South 4.6 mph - 0.01 in   Overcast
4:56 PM 57.0 °F 57.0 °F 100% 29.97 in 3.0 mi Variable 3.5 mph - 0.03 in Rain Light Rain
5:34 PM 57.2 °F 57.2 °F 100% 29.93 in 6.0 mi SSE 3.5 mph - 0.00 in   Overcast
5:56 PM 57.9 °F 57.9 °F 100% 29.96 in 6.0 mi Calm Calm - 0.00 in   Overcast
6:56 PM 59.0 °F 59.0 °F 100% 29.95 in 6.0 mi Calm Calm - N/A   Overcast
7:56 PM 57.9 °F 57.9 °F 100% 29.95 in 5.0 mi Calm Calm - N/A   Mostly Cloudy
8:56 PM 57.9 °F 57.9 °F 100% 29.94 in 6.0 mi Calm Calm - N/A   Mostly Cloudy
9:11 PM 57.2 °F 57.2 °F 100% 29.91 in 5.0 mi Calm Calm - N/A   Overcast
9:56 PM 57.0 °F 57.0 °F 100% 29.93 in 4.0 mi Calm Calm - N/A   Scattered Clouds
10:22 PM 55.4 °F 55.4 °F 100% 29.89 in 1.8 mi NW 4.6 mph - N/A   Partly Cloudy
10:27 PM 55.4 °F 55.4 °F 100% 29.89 in 0.8 mi WNW 3.5 mph - N/A   Mostly Cloudy
10:34 PM 55.4 °F 55.4 °F 100% 29.89 in 1.2 mi Calm Calm - N/A   Mostly Cloudy
10:38 PM 55.4 °F 55.4 °F 100% 29.89 in 3.0 mi Calm Calm - N/A   Mostly Cloudy
10:56 PM 55.9 °F 55.9 °F 100% 29.93 in 4.0 mi WNW 3.5 mph - N/A   Mostly Cloudy
11:24 PM 55.4 °F 55.4 °F 100% 29.89 in 4.0 mi Calm Calm - N/A   Mostly Cloudy
11:45 PM 55.4 °F 55.4 °F 100% 29.89 in 5.0 mi North 4.6 mph - N/A   Overcast
11:54 PM 57.2 °F 57.2 °F 100% 29.89 in 6.0 mi Calm Calm - N/A   Overcast
11:56 PM 55.9 °F 55.9 °F 100% 29.92 in 6.0 mi Calm Calm - N/A   Overcast